Madison, MN

3:55 PM CDT on June 22, 2017 (GMT -0500)
Madison-Lac Qui Parle County

Weather History for KDXX - January, 2013

Change the Weather History Date:

Wednesday, January 2, 2013

  Actual Average (KAQP) Record (KAQP)
Temperature  
Mean Temperature 18 °F -  
Max Temperature 30 °F 20 °F 48 °F (1998)
Min Temperature 6 °F 5 °F -20 °F (2014)
Degree Days  
Heating Degree Days 47    
Moisture  
Dew Point 16 °F    
Average Humidity 83    
Maximum Humidity 93    
Minimum Humidity 74    
Precipitation  
Precipitation 0.00 in - - ()
Sea Level Pressure  
Sea Level Pressure 29.99 in    
Wind  
Wind Speed 9 mph (WNW)    
Max Wind Speed 18 mph    
Max Gust Speed 25 mph    
Visibility 10 miles    
Events Snow    
Averages and records for this station are not official NWS values.
T = Trace of Precipitation, MM = Missing Value Source: NWS Daily Summary

Daily Weather History Graph

Daily Weather History Graph

Search for Another Location

Airport or City:

Trip Planner

Search our weather history database for the weather conditions in past years. The results will help you decide how hot, cold, wet, or windy it might be!

Date:

Astronomy

Jan. 02, 2013 Rise Set
Actual Time 8:03 AM CST 4:55 PM CST
Civil Twilight 7:29 AM CST 5:28 PM CST
Nautical Twilight 6:52 AM CST 6:05 PM CST
Astronomical Twilight 6:16 AM CST 6:41 PM CST
Moon 10:44 PM CST (1/2) 10:30 AM CST (1/2)
Length of Visible Light 9h 59m
Length of Day
8h 52m
Waning Gibbous, 75% of the Moon is Illuminated
Jan 2
Waning Gibbous
Jan 4
Last Quarter
Jan 11
New
Jan 18
First Quarter
Jan 26
Full

Hourly Weather History & Observations

Time (CST) Temp. Windchill Dew Point Humidity Pressure Visibility Wind Dir Wind Speed Gust Speed Precip Events Conditions
12:14 AM 14.0 °F 6.5 °F 10.4 °F 86% 29.96 in 10.0 mi SW 4.6 mph - N/A   Clear
12:33 AM 14.0 °F 5.1 °F 10.4 °F 86% 29.95 in 10.0 mi SW 5.8 mph - N/A   Clear
12:54 AM 8.6 °F -3.7 °F 6.8 °F 92% 29.93 in 10.0 mi SSW 8.1 mph - N/A   Clear
1:14 AM 12.2 °F 1.7 °F 10.4 °F 92% 29.93 in 10.0 mi SW 6.9 mph - N/A   Clear
1:33 AM 10.4 °F 2.2 °F 8.6 °F 92% 29.92 in 10.0 mi SSW 4.6 mph - N/A   Clear
1:54 AM 10.4 °F 4.0 °F 6.8 °F 85% 29.92 in 10.0 mi SSW 3.5 mph - N/A   Clear
2:14 AM 8.6 °F 0.1 °F 6.8 °F 92% 29.93 in 10.0 mi SW 4.6 mph - N/A   Clear
2:33 AM 8.6 °F -1.3 °F 5.0 °F 85% 29.92 in 10.0 mi SW 5.8 mph - N/A   Clear
2:54 AM 8.6 °F -1.3 °F 6.8 °F 92% 29.93 in 10.0 mi WSW 5.8 mph - N/A   Clear
3:33 AM 6.8 °F -2.0 °F 3.2 °F 85% 29.93 in 10.0 mi WSW 4.6 mph - N/A   Clear
3:54 AM 8.6 °F -3.7 °F 6.8 °F 92% 29.92 in 10.0 mi SW 8.1 mph - N/A   Clear
4:14 AM 8.6 °F -3.7 °F 6.8 °F 92% 29.92 in 10.0 mi WSW 8.1 mph - N/A   Clear
4:33 AM 10.4 °F -2.4 °F 6.8 °F 85% 29.92 in 10.0 mi SW 9.2 mph - N/A   Mostly Cloudy
4:54 AM 12.2 °F 1.7 °F 10.4 °F 92% 29.91 in 10.0 mi SW 6.9 mph - N/A   Overcast
5:14 AM 12.2 °F 2.9 °F 10.4 °F 92% 29.91 in 10.0 mi SW 5.8 mph - N/A   Overcast
5:33 AM 14.0 °F 6.5 °F 10.4 °F 86% 29.90 in 10.0 mi SW 4.6 mph - N/A   Overcast
5:54 AM 15.8 °F 7.2 °F 12.2 °F 86% 29.90 in 10.0 mi SW 5.8 mph - N/A   Overcast
6:14 AM 15.8 °F 10.2 °F 12.2 °F 86% 29.90 in 10.0 mi SW 3.5 mph - N/A Snow Light Snow
6:33 AM 17.6 °F 10.7 °F 12.2 °F 79% 29.90 in 7.0 mi SW 4.6 mph - N/A Snow Light Snow
6:54 AM 17.6 °F 12.3 °F 15.8 °F 93% 29.90 in 5.0 mi SW 3.5 mph - N/A Snow Light Snow
7:14 AM 19.4 °F 12.8 °F 17.6 °F 93% 29.89 in 3.0 mi WSW 4.6 mph - N/A Snow Light Snow
7:33 AM 21.2 °F 14.9 °F 19.4 °F 93% 29.90 in 5.0 mi WSW 4.6 mph - N/A Snow Light Snow
7:54 AM 24.8 °F 17.9 °F 21.2 °F 86% 29.90 in 10.0 mi West 5.8 mph - N/A   Overcast
8:14 AM 24.8 °F 16.9 °F 21.2 °F 86% 29.90 in 10.0 mi West 6.9 mph - N/A   Overcast
8:33 AM 24.8 °F 17.9 °F 21.2 °F 86% 29.91 in 10.0 mi West 5.8 mph - N/A   Overcast
8:54 AM 26.6 °F 19.1 °F 23.0 °F 86% 29.91 in 10.0 mi West 6.9 mph - N/A   Overcast
9:14 AM 28.4 °F 19.7 °F 24.8 °F 86% 29.91 in 10.0 mi WNW 9.2 mph - N/A   Overcast
9:33 AM 28.4 °F 19.7 °F 24.8 °F 86% 29.92 in 10.0 mi West 9.2 mph - N/A   Overcast
9:54 AM 28.4 °F 19.1 °F 24.8 °F 86% 29.92 in 10.0 mi West 10.4 mph - N/A   Overcast
10:14 AM 28.4 °F 19.1 °F 24.8 °F 86% 29.93 in 10.0 mi WNW 10.4 mph - N/A   Overcast
10:33 AM 28.4 °F 18.5 °F 24.8 °F 86% 29.93 in 10.0 mi WNW 11.5 mph - N/A   Overcast
10:54 AM 30.2 °F 21.9 °F 24.8 °F 80% 29.93 in 10.0 mi WNW 9.2 mph - N/A   Overcast
11:14 AM 30.2 °F 20.8 °F 24.8 °F 80% 29.93 in 10.0 mi NW 11.5 mph - N/A   Overcast
11:33 AM 30.2 °F 21.3 °F 24.8 °F 80% 29.93 in 10.0 mi WNW 10.4 mph - N/A   Overcast
11:54 AM 30.2 °F 20.8 °F 24.8 °F 80% 29.92 in 10.0 mi WNW 11.5 mph - N/A   Overcast
12:14 PM 30.2 °F 20.2 °F 24.8 °F 80% 29.92 in 10.0 mi WNW 12.7 mph - N/A   Overcast
12:33 PM 30.2 °F 21.3 °F 24.8 °F 80% 29.92 in 10.0 mi WNW 10.4 mph - N/A   Overcast
12:54 PM 30.2 °F 19.8 °F 24.8 °F 80% 29.92 in 10.0 mi NW 13.8 mph - N/A   Overcast
1:14 PM 30.2 °F 19.3 °F 26.6 °F 86% 29.93 in 7.0 mi NW 15.0 mph 18.4 mph N/A   Overcast
1:33 PM 28.4 °F 16.2 °F 23.0 °F 80% 29.94 in 10.0 mi NNW 17.3 mph - N/A   Overcast
1:54 PM 28.4 °F 17.0 °F 21.2 °F 74% 29.95 in 10.0 mi NW 15.0 mph - N/A   Overcast
2:14 PM 28.4 °F 16.6 °F 21.2 °F 74% 29.96 in 10.0 mi NW 16.1 mph - N/A   Overcast
2:33 PM 28.4 °F 16.6 °F 21.2 °F 74% 29.97 in 10.0 mi NNW 16.1 mph - N/A   Overcast
2:54 PM 26.6 °F 15.2 °F 19.4 °F 74% 29.98 in 10.0 mi NNW 13.8 mph - N/A   Scattered Clouds
3:14 PM 26.6 °F 13.8 °F 19.4 °F 74% 29.99 in 10.0 mi NNW 17.3 mph 25.3 mph N/A   Scattered Clouds
3:33 PM 26.6 °F 14.3 °F 19.4 °F 74% 30.00 in 10.0 mi NNW 16.1 mph - N/A   Mostly Cloudy
3:54 PM 26.6 °F 15.7 °F 19.4 °F 74% 30.01 in 10.0 mi NW 12.7 mph - N/A   Overcast
4:14 PM 26.6 °F 14.7 °F 19.4 °F 74% 30.01 in 10.0 mi NNW 15.0 mph - N/A   Overcast
4:33 PM 26.6 °F 15.7 °F 19.4 °F 74% 30.02 in 10.0 mi NW 12.7 mph - N/A   Overcast
4:54 PM 26.6 °F 15.2 °F 19.4 °F 74% 30.03 in 10.0 mi NW 13.8 mph - N/A Snow Light Snow
5:14 PM 24.8 °F 14.0 °F 19.4 °F 80% 30.04 in 10.0 mi NW 11.5 mph - N/A Snow Light Snow
5:33 PM 24.8 °F 14.6 °F 19.4 °F 80% 30.04 in 10.0 mi NW 10.4 mph - N/A   Overcast
5:54 PM 24.8 °F 14.6 °F 19.4 °F 80% 30.05 in 10.0 mi NNW 10.4 mph - N/A   Overcast
6:14 PM 24.8 °F 15.3 °F 19.4 °F 80% 30.06 in 10.0 mi NNW 9.2 mph - N/A   Overcast
6:33 PM 24.8 °F 16.9 °F 19.4 °F 80% 30.06 in 10.0 mi NNW 6.9 mph - N/A   Overcast
6:54 PM 24.8 °F 15.3 °F 19.4 °F 80% 30.07 in 10.0 mi NW 9.2 mph - N/A   Overcast
7:14 PM 24.8 °F 13.4 °F 17.6 °F 74% 30.09 in 10.0 mi North 12.7 mph - N/A   Overcast
7:33 PM 23.0 °F 9.6 °F 17.6 °F 80% 30.10 in 10.0 mi North 16.1 mph - N/A   Overcast
7:54 PM 21.2 °F 6.4 °F 15.8 °F 80% 30.11 in 10.0 mi NNW 18.4 mph - N/A   Overcast
8:14 PM 21.2 °F 7.3 °F 15.8 °F 80% 30.12 in 10.0 mi North 16.1 mph - N/A   Overcast
8:33 PM 19.4 °F 4.5 °F 15.8 °F 86% 30.13 in 7.0 mi North 17.3 mph 21.9 mph N/A   Overcast
8:54 PM 17.6 °F 2.2 °F 12.2 °F 79% 30.15 in 10.0 mi NNW 17.3 mph - N/A   Mostly Cloudy
9:14 PM 17.6 °F 2.2 °F 12.2 °F 79% 30.15 in 10.0 mi NNW 17.3 mph 23.0 mph N/A Snow Light Snow
9:33 PM 17.6 °F 2.7 °F 12.2 °F 79% 30.16 in 10.0 mi NNW 16.1 mph - N/A Snow Light Snow
9:54 PM 15.8 °F 0.3 °F 10.4 °F 79% 30.17 in 10.0 mi NNW 16.1 mph - N/A Snow Light Snow
10:14 PM 15.8 °F 2.1 °F 10.4 °F 79% 30.17 in 10.0 mi NW 12.7 mph - N/A Snow Light Snow
10:33 PM 14.0 °F -0.8 °F 8.6 °F 79% 30.18 in 10.0 mi NW 13.8 mph - N/A Snow Light Snow
10:54 PM 12.2 °F -3.7 °F 8.6 °F 85% 30.19 in 10.0 mi NW 15.0 mph - N/A   Overcast
11:14 PM 12.2 °F -3.7 °F 8.6 °F 85% 30.20 in 10.0 mi NW 15.0 mph - N/A   Overcast
11:33 PM 12.2 °F -3.7 °F 6.8 °F 79% 30.21 in 10.0 mi NW 15.0 mph - N/A   Mostly Cloudy
11:54 PM 10.4 °F -5.4 °F 5.0 °F 79% 30.22 in 10.0 mi NW 13.8 mph - N/A   Scattered Clouds